| time (UTC) | temp C | wind direction | speed KPH | gust KPH | rain 1hr cm | rain 24hr cm | rain mn cm | humidity % | barometer mb |
| 20260508171537 | 5 | 353 | 1.6 | 9.7 | 0.00 | 2.49 | 0.00 | 94 | 1002.3 |
| 20260508170039 | 5 | 331 | 1.6 | 9.7 | 0.00 | 2.49 | 0.00 | 94 | 1002.4 |
| 20260508164538 | 5 | 315 | 1.6 | 14.5 | 0.00 | 2.54 | 0.00 | 94 | 1002.3 |
| 20260508163037 | 6 | 308 | 4.8 | 14.5 | 0.00 | 2.54 | 0.00 | 94 | 1002.1 |
| 20260508161538 | 5 | 35 | 9.7 | 17.7 | 0.00 | 2.54 | 0.00 | 95 | 1001.7 |
| 20260508160037 | 6 | 32 | 9.7 | 17.7 | 0.00 | 2.54 | 0.00 | 95 | 1001.7 |
| 20260508154537 | 6 | 4 | 3.2 | 11.3 | 0.00 | 2.54 | 0.00 | 95 | 1001.9 |
| 20260508153040 | 6 | 85 | 4.8 | 12.9 | 0.00 | 2.54 | 0.00 | 96 | 1001.9 |
| 20260508151542 | 6 | 360 | 3.2 | 11.3 | 0.00 | 2.54 | 0.00 | 96 | 1002.1 |
| 20260508150037 | 5 | 359 | 6.4 | 17.7 | 0.00 | 2.54 | 0.00 | 96 | 1002.1 |
| 20260508144539 | 6 | 312 | 6.4 | 16.1 | 0.00 | 2.54 | 0.00 | 95 | 1002.2 |
| 20260508143040 | 8 | 357 | 6.4 | 14.5 | 0.00 | 2.54 | 0.00 | 96 | 1002.3 |
| 20260508141607 | 7 | 34 | 3.2 | 11.3 | 0.00 | 2.54 | 0.00 | 97 | 1002.2 |
| 20260508140039 | 7 | 343 | 3.2 | 11.3 | 0.00 | 2.54 | 0.00 | 97 | 1002.7 |
| 20260508134552 | 7 | 51 | 3.2 | 9.7 | 0.00 | 2.54 | 0.00 | 98 | 1002.6 |
| 20260508133037 | 7 | 354 | 1.6 | 8.0 | 0.00 | 2.54 | 0.00 | 98 | 1002.5 |
| 20260508131537 | 6 | 316 | 4.8 | 14.5 | 0.00 | 2.54 | 0.00 | 97 | 1002.2 |
| 20260508130040 | 8 | 340 | 6.4 | 12.9 | 0.00 | 2.54 | 0.00 | 98 | 1001.9 |
| 20260508124544 | 7 | 355 | 3.2 | 11.3 | 0.00 | 2.54 | 0.00 | 99 | 1001.8 |
| 20260508123046 | 6 | 46 | 9.7 | 17.7 | 0.00 | 2.54 | 0.00 | 98 | 1002.0 |
| 20260508121537 | 7 | 62 | 6.4 | 11.3 | 0.00 | 2.54 | 0.00 | 99 | 1002.1 |
| 20260508120037 | 7 | 109 | 0.0 | 6.4 | 0.00 | 2.54 | 0.00 | 99 | 1002.1 |
| 20260508114540 | 7 | 10 | 1.6 | 6.4 | 0.00 | 2.54 | 0.00 | 99 | 1002.1 |
| 20260508113049 | 7 | 0 | 0.0 | 4.8 | 0.00 | 2.54 | 0.00 | 99 | 1002.3 |
| 20260508111538 | 6 | 0 | 0.0 | 4.8 | 0.00 | 2.54 | 0.00 | 99 | 1002.3 |
| 20260508110038 | 6 | 0 | 1.6 | 4.8 | 0.00 | 2.54 | 0.00 | 99 | 1002.7 |
| 20260508104539 | 5 | 0 | 0.0 | 0.0 | 0.00 | 2.54 | 0.00 | 99 | 1002.6 |
| 20260508103039 | 5 | 0 | 0.0 | 0.0 | 0.00 | 2.54 | 0.00 | 99 | 1002.6 |
| 20260508101540 | 5 | 0 | 0.0 | 0.0 | 0.00 | 2.54 | 0.00 | 99 | 1002.7 |
| 20260508100037 | 4 | 0 | 0.0 | 3.2 | 0.00 | 2.54 | 0.00 | 99 | 1002.4 |
| 20260508094537 | 4 | 21 | 3.2 | 6.4 | 0.00 | 2.54 | 0.00 | 99 | 1002.2 |
| 20260508093044 | 4 | 0 | 0.0 | 0.0 | 0.00 | 2.54 | 0.00 | 99 | 1002.3 |
| 20260508091547 | 4 | 0 | 0.0 | 0.0 | 0.00 | 2.54 | 0.00 | 99 | 1002.2 |
| 20260508090041 | 3 | 0 | 0.0 | 0.0 | 0.00 | 2.54 | 0.00 | 98 | 1002.0 |
| 20260508084538 | 4 | 0 | 0.0 | 0.0 | 0.00 | 2.54 | 0.00 | 98 | 1001.7 |
| 20260508083048 | 5 | 0 | 0.0 | 3.2 | 0.00 | 2.54 | 0.00 | 98 | 1001.6 |
| 20260508081537 | 5 | 0 | 0.0 | 3.2 | 0.00 | 2.54 | 0.00 | 98 | 1001.1 |
| 20260508080039 | 5 | 21 | 1.6 | 6.4 | 0.00 | 2.54 | 0.00 | 98 | 1001.4 |
| 20260508074548 | 5 | 21 | 3.2 | 6.4 | 0.00 | 2.54 | 0.00 | 98 | 1001.5 |
| 20260508073038 | 5 | 21 | 3.2 | 6.4 | 0.00 | 2.54 | 0.00 | 98 | 1001.7 |
| 20260508071538 | 5 | 21 | 3.2 | 6.4 | 0.00 | 2.54 | 0.00 | 98 | 1001.6 |
| 20260508070040 | 5 | 21 | 1.6 | 4.8 | 0.00 | 2.54 | 0.00 | 98 | 1001.8 |
| 20260508064541 | 5 | 0 | 0.0 | 0.0 | 0.00 | 2.54 | 0.00 | 98 | 1001.8 |
| 20260508063038 | 5 | 0 | 0.0 | 3.2 | 0.00 | 2.54 | 0.00 | 98 | 1001.7 |
| 20260508061538 | 5 | 21 | 0.0 | 4.8 | 0.00 | 2.54 | 0.00 | 98 | 1001.7 |
| 20260508060037 | 5 | 21 | 3.2 | 8.0 | 0.00 | 2.54 | 0.00 | 98 | 1001.7 |
| 20260508054539 | 5 | 21 | 6.4 | 9.7 | 0.00 | 2.54 | 0.00 | 98 | 1002.1 |
| 20260508053040 | 5 | 21 | 3.2 | 8.0 | 0.00 | 2.54 | 0.00 | 98 | 1002.4 |
| 20260508051538 | 5 | 21 | 3.2 | 6.4 | 0.00 | 2.54 | 0.00 | 98 | 1002.3 |
| 20260508050037 | 5 | 0 | 1.6 | 6.4 | 0.00 | 2.54 | 0.00 | 98 | 1002.2 |
| 20260508044537 | 5 | 21 | 1.6 | 8.0 | 0.00 | 2.54 | 0.00 | 98 | 1002.2 |
| 20260508043045 | 5 | 37 | 9.7 | 14.5 | 0.00 | 2.54 | 0.00 | 97 | 1002.1 |
| 20260508041538 | 5 | 352 | 6.4 | 14.5 | 0.00 | 2.54 | 0.00 | 97 | 1002.5 |
| 20260508040039 | 6 | 290 | 8.0 | 16.1 | 0.00 | 2.54 | 0.00 | 97 | 1002.3 |
| 20260508034537 | 7 | 303 | 3.2 | 9.7 | 0.00 | 2.54 | 0.00 | 98 | 1002.4 |
| 20260508033039 | 7 | 313 | 3.2 | 8.0 | 0.00 | 2.54 | 0.00 | 98 | 1002.4 |
| 20260508031537 | 7 | 0 | 0.0 | 0.0 | 0.00 | 2.54 | 0.00 | 98 | 1002.2 |
| 20260508030044 | 7 | 0 | 0.0 | 0.0 | 0.03 | 2.54 | 0.00 | 98 | 1002.0 |
| 20260508024539 | 7 | 0 | 0.0 | 0.0 | 0.03 | 2.54 | 2.54 | 98 | 1002.1 |
| 20260508023039 | 7 | 0 | 0.0 | 0.0 | 0.05 | 2.54 | 2.54 | 98 | 1002.0 |
| 20260508021545 | 7 | 0 | 0.0 | 0.0 | 0.08 | 2.54 | 2.54 | 97 | 1002.4 |
| 20260508020037 | 7 | 0 | 0.0 | 0.0 | 0.08 | 2.51 | 2.51 | 97 | 1002.4 |
| 20260508014537 | 7 | 0 | 0.0 | 0.0 | 0.13 | 2.51 | 2.51 | 97 | 1002.8 |
| 20260508013042 | 7 | 235 | 0.0 | 4.8 | 0.15 | 2.49 | 2.49 | 97 | 1002.7 |
| 20260508011538 | 7 | 0 | 0.0 | 0.0 | 0.18 | 2.46 | 2.46 | 97 | 1002.8 |
| 20260508010038 | 7 | 0 | 0.0 | 0.0 | 0.25 | 2.44 | 2.44 | 97 | 1002.6 |
| 20260508004540 | 7 | 0 | 0.0 | 1.6 | 0.33 | 2.39 | 2.39 | 97 | 1002.7 |
| 20260508003038 | 7 | 0 | 0.0 | 4.8 | 0.33 | 2.34 | 2.34 | 97 | 1002.7 |
| 20260508001539 | 7 | 241 | 0.0 | 4.8 | 0.36 | 2.29 | 2.29 | 96 | 1002.8 |
| 20260508000039 | 7 | 219 | 0.0 | 8.0 | 0.23 | 2.16 | 2.16 | 96 | 1002.8 |
| 20260507234538 | 7 | 0 | 3.2 | 22.5 | 0.13 | 2.06 | 2.06 | 96 | 1002.4 |
| 20260507233039 | 7 | 308 | 12.9 | 29.0 | 0.05 | 1.98 | 1.98 | 95 | 1002.1 |
| 20260507231543 | 8 | 267 | 12.9 | 33.8 | 0.00 | 1.93 | 1.93 | 95 | 1001.8 |
| 20260507230037 | 11 | 265 | 14.5 | 25.7 | 0.00 | 1.93 | 1.93 | 93 | 1001.6 |
| 20260507224537 | 11 | 210 | 6.4 | 12.9 | 0.00 | 1.93 | 1.93 | 94 | 1001.2 |
| 20260507223040 | 12 | 241 | 3.2 | 6.4 | 0.00 | 1.93 | 1.93 | 93 | 1001.1 |
| 20260507221538 | 12 | 0 | 1.6 | 14.5 | 0.00 | 1.93 | 1.93 | 93 | 1001.1 |
| 20260507220038 | 12 | 156 | 4.8 | 16.1 | 0.00 | 1.93 | 1.93 | 93 | 1000.9 |
| 20260507214552 | 12 | 157 | 1.6 | 8.0 | 0.00 | 1.93 | 1.93 | 93 | 1000.9 |
| 20260507213039 | 12 | 173 | 3.2 | 14.5 | 0.00 | 1.93 | 1.93 | 93 | 1000.8 |
| 20260507211537 | 12 | 102 | 8.0 | 16.1 | 0.00 | 1.93 | 1.93 | 94 | 1000.8 |
| 20260507210049 | 12 | 152 | 6.4 | 17.7 | 0.00 | 1.93 | 1.93 | 94 | 1000.8 |
| 20260507204539 | 12 | 189 | 11.3 | 19.3 | 0.05 | 1.93 | 1.93 | 94 | 1000.6 |
| 20260507203048 | 12 | 166 | 3.2 | 20.9 | 0.15 | 1.93 | 1.93 | 95 | 1000.8 |
| 20260507201543 | 12 | 119 | 11.3 | 25.7 | 0.23 | 1.93 | 1.93 | 95 | 1000.3 |
| 20260507200043 | 12 | 107 | 16.1 | 33.8 | 0.33 | 1.93 | 1.93 | 95 | 999.8 |
| 20260507194600 | 12 | 106 | 14.5 | 22.5 | 0.36 | 1.88 | 1.88 | 96 | 1001.0 |
| 20260507193038 | 12 | 87 | 8.0 | 22.5 | 0.33 | 1.78 | 1.78 | 96 | 1001.7 |
| 20260507191543 | 12 | 174 | 3.2 | 16.1 | 0.38 | 1.68 | 1.68 | 96 | 1002.9 |
| 20260507190038 | 12 | 129 | 9.7 | 19.3 | 0.51 | 1.60 | 1.60 | 96 | 1002.6 |
| 20260507184540 | 12 | 152 | 11.3 | 24.1 | 0.69 | 1.52 | 1.52 | 96 | 1003.1 |
| 20260507183038 | 12 | 147 | 8.0 | 20.9 | 1.04 | 1.42 | 1.42 | 96 | 1003.1 |
| 20260507181542 | 11 | 162 | 8.0 | 19.3 | 1.19 | 1.30 | 1.30 | 96 | 1003.5 |
| 20260507180041 | 11 | 6 | 6.4 | 22.5 | 1.04 | 1.09 | 1.09 | 95 | 1003.7 |
| 20260507174544 | 11 | 194 | 8.0 | 27.4 | 0.79 | 0.81 | 0.81 | 94 | 1003.8 |
| 20260507173039 | 12 | 221 | 12.9 | 35.4 | 0.36 | 0.36 | 0.36 | 93 | 1003.4 |